,,,PA_Meas_PMT16A,,PR_Meas_QMR101_102,,RH_Meas_QMH101,,SR_Meas_QMS101,,TA_Meas_QMH101,,GenWind,,GenWind,
date,time,status,PA,status,PR,status,RH,status,SR,status,TA,status,DirAvg,status,SpdAvg,
2012-06-14, 00:00:05,VALID,1010.22,VALID,0,VALID,104,VALID,0,VALID,24.0643,VALID,201,VALID,0,
2012-06-14, 00:01:05,VALID,1010.23,VALID,0,VALID,104,VALID,0,VALID,24.0643,VALID,201,VALID,0,
2012-06-14, 00:02:05,VALID,1010.17,VALID,0,VALID,104,VALID,0,VALID,24.0448,VALID,201,VALID,0,
2012-06-14, 00:03:05,VALID,1010.16,VALID,0,VALID,104,VALID,0,VALID,24.0253,VALID,201,VALID,0,
2012-06-14, 00:04:05,VALID,1010.2,VALID,0,VALID,104,VALID,0,VALID,24.0253,VALID,201,VALID,0,
2012-06-14, 00:05:05,VALID,1010.18,VALID,0,VALID,104,VALID,0,VALID,24.0448,VALID,201,VALID,0,
2012-06-14, 00:06:05,VALID,1010.18,VALID,0,VALID,104,VALID,0,VALID,24.0253,VALID,201,VALID,0,
2012-06-14, 00:07:05,VALID,1010.19,VALID,0,VALID,104,VALID,0,VALID,24.004,VALID,201,VALID,0,
2012-06-14, 00:08:05,VALID,1010.19,VALID,0,VALID,104,VALID,0,VALID,24.0253,VALID,201,VALID,0,
2012-06-14, 00:09:05,VALID,1010.17,VALID,0,VALID,104,VALID,0,VALID,24.0253,VALID,201,VALID,0,
2012-06-14, 00:10:05,VALID,1010.16,VALID,0,VALID,104,VALID,0,VALID,24.0253,VALID,201,VALID,0,
2012-06-14, 00:11:05,VALID,1010.13,VALID,0,VALID,104,VALID,0,VALID,24.0253,VALID,201,VALID,0,
2012-06-14, 00:12:05,VALID,1010.11,VALID,0,VALID,104,VALID,0,VALID,24.0058,VALID,201,VALID,0,
2012-06-14, 00:13:05,VALID,1010.1,VALID,0,VALID,104,VALID,0,VALID,24.0058,VALID,201,VALID,0,
2012-06-14, 00:14:05,VALID,1010.06,VALID,0,VALID,104,VALID,0,VALID,24.0058,VALID,201,VALID,0,
2012-06-14, 00:15:05,VALID,1010.04,VALID,0,VALID,104,VALID,0,VALID,23.965,VALID,201,VALID,0,
2012-06-14, 00:16:05,VALID,1010.05,VALID,0,VALID,104,VALID,0,VALID,23.926,VALID,201,VALID,0,
2012-06-14, 00:17:05,VALID,1010.05,VALID,0,VALID,104,VALID,0,VALID,23.926,VALID,201,VALID,0,
2012-06-14, 00:18:05,VALID,1010.04,VALID,0,VALID,104,VALID,0.112112,VALID,23.926,VALID,201,VALID,0,
2012-06-14, 00:19:05,VALID,1010.02,VALID,0,VALID,104,VALID,0,VALID,23.9278,VALID,201,VALID,0,
2012-06-14, 00:20:05,VALID,1010.02,VALID,0,VALID,104,VALID,0,VALID,23.9668,VALID,201,VALID,0,
2012-06-14, 00:21:05,VALID,1010,VALID,0,VALID,104,VALID,0,VALID,23.9668,VALID,201,VALID,0,
2012-06-14, 00:22:05,VALID,1010,VALID,0,VALID,104,VALID,0,VALID,23.965,VALID,201,VALID,0,
2012-06-14, 00:23:05,VALID,1010,VALID,0,VALID,104,VALID,0,VALID,23.9668,VALID,201,VALID,0,
2012-06-14, 00:24:05,VALID,1009.99,VALID,0,VALID,104,VALID,0,VALID,23.9473,VALID,201,VALID,0,
2012-06-14, 00:25:05,VALID,1009.98,VALID,0,VALID,104,VALID,0,VALID,23.9473,VALID,201,VALID,0,
2012-06-14, 00:26:05,VALID,1009.99,VALID,0,VALID,104,VALID,0,VALID,23.9278,VALID,201,VALID,0,
2012-06-14, 00:27:05,VALID,1009.98,VALID,0,VALID,104,VALID,0,VALID,23.8889,VALID,201,VALID,0,
2012-06-14, 00:28:05,VALID,1009.99,VALID,0,VALID,104,VALID,0,VALID,23.8694,VALID,201,VALID,0,
2012-06-14, 00:29:05,VALID,1009.96,VALID,0,VALID,104,VALID,0,VALID,23.8889,VALID,201,VALID,0,
2012-06-14, 00:30:05,VALID,1009.94,VALID,0,VALID,104,VALID,0,VALID,23.8481,VALID,201,VALID,0,
2012-06-14, 00:31:05,VALID,1009.91,VALID,0,VALID,104,VALID,0,VALID,23.8286,VALID,201,VALID,0,
2012-06-14, 00:32:05,VALID,1009.92,VALID,0,VALID,104,VALID,0,VALID,23.8499,VALID,201,VALID,0,
2012-06-14, 00:33:05,VALID,1009.91,VALID,0,VALID,104,VALID,0,VALID,23.8304,VALID,201,VALID,0,
2012-06-14, 00:34:05,VALID,1009.89,VALID,0,VALID,104,VALID,0,VALID,23.8499,VALID,201,VALID,0,
2012-06-14, 00:35:05,VALID,1009.84,VALID,0,VALID,104,VALID,0,VALID,23.8286,VALID,201,VALID,0,
2012-06-14, 00:36:05,VALID,1009.84,VALID,0,VALID,104,VALID,0,VALID,23.8286,VALID,201,VALID,0,
2012-06-14, 00:37:05,VALID,1009.82,VALID,0,VALID,104,VALID,0,VALID,23.8091,VALID,201,VALID,0,
2012-06-14, 00:38:05,VALID,1009.8,VALID,0,VALID,104,VALID,0,VALID,23.8091,VALID,201,VALID,0,
2012-06-14, 00:39:05,VALID,1009.8,VALID,0,VALID,104,VALID,0,VALID,23.8109,VALID,201,VALID,0,
2012-06-14, 00:40:05,VALID,1009.77,VALID,0,VALID,104,VALID,0.112112,VALID,23.7914,VALID,201,VALID,0,
2012-06-14, 00:41:05,VALID,1009.76,VALID,0,VALID,104,VALID,0,VALID,23.7525,VALID,201,VALID,0,
2012-06-14, 00:42:05,VALID,1009.77,VALID,0,VALID,104,VALID,0,VALID,23.7507,VALID,201,VALID,0,
2012-06-14, 00:43:05,VALID,1009.78,VALID,0,VALID,104,VALID,0,VALID,23.733,VALID,201,VALID,0,
2012-06-14, 00:44:05,VALID,1009.75,VALID,0,VALID,104,VALID,0,VALID,23.733,VALID,201,VALID,0,
2012-06-14, 00:45:05,VALID,1009.73,VALID,0,VALID,104,VALID,0,VALID,23.694,VALID,201,VALID,0,
2012-06-14, 00:46:05,VALID,1009.72,VALID,0,VALID,104,VALID,0,VALID,23.733,VALID,201,VALID,0,
2012-06-14, 00:47:05,VALID,1009.7,VALID,0,VALID,104,VALID,0,VALID,23.7135,VALID,201,VALID,0,
2012-06-14, 00:48:05,VALID,1009.69,VALID,0,VALID,104,VALID,0,VALID,23.694,VALID,201,VALID,0,
2012-06-14, 00:49:05,VALID,1009.72,VALID,0,VALID,104,VALID,0,VALID,23.694,VALID,201,VALID,0,
2012-06-14, 00:50:05,VALID,1009.7,VALID,0,VALID,104,VALID,0,VALID,23.694,VALID,201,VALID,0,
2012-06-14, 00:51:05,VALID,1009.71,VALID,0,VALID,104,VALID,0,VALID,23.7135,VALID,201,VALID,0,
2012-06-14, 00:52:05,VALID,1009.72,VALID,0,VALID,104,VALID,0,VALID,23.694,VALID,201,VALID,0,
2012-06-14, 00:53:05,VALID,1009.75,VALID,0,VALID,104,VALID,0,VALID,23.7135,VALID,201,VALID,0,
2012-06-14, 00:54:05,VALID,1009.72,VALID,0,VALID,104,VALID,0,VALID,23.733,VALID,201,VALID,0,
2012-06-14, 00:55:05,VALID,1009.69,VALID,0,VALID,104,VALID,0,VALID,23.6745,VALID,201,VALID,0,
2012-06-14, 00:56:05,VALID,1009.68,VALID,0,VALID,104,VALID,0,VALID,23.655,VALID,201,VALID,0,
2012-06-14, 00:57:05,VALID,1009.69,VALID,0,VALID,104,VALID,0,VALID,23.6161,VALID,201,VALID,0,
2012-06-14, 00:58:05,VALID,1009.7,VALID,0,VALID,104,VALID,0,VALID,23.5966,VALID,201,VALID,0,
2012-06-14, 00:59:05,VALID,1009.69,VALID,0,VALID,104,VALID,0,VALID,23.5966,VALID,201,VALID,0,
2012-06-14, 01:00:05,VALID,1009.66,VALID,0,VALID,104,VALID,0,VALID,23.5753,VALID,201,VALID,0,
2012-06-14, 01:01:05,VALID,1009.69,VALID,0,VALID,104,VALID,0,VALID,23.5771,VALID,201,VALID,0,
2012-06-14, 01:02:05,VALID,1009.7,VALID,0,VALID,104,VALID,0,VALID,23.5576,VALID,201,VALID,0,
2012-06-14, 01:03:05,VALID,1009.71,VALID,0,VALID,104,VALID,0,VALID,23.5381,VALID,201,VALID,0,
2012-06-14, 01:04:05,VALID,1009.67,VALID,0,VALID,104,VALID,0,VALID,23.5186,VALID,201,VALID,0,
2012-06-14, 01:05:05,VALID,1009.69,VALID,0,VALID,104,VALID,0,VALID,23.4992,VALID,201,VALID,0,
2012-06-14, 01:06:05,VALID,1009.68,VALID,0,VALID,104,VALID,0,VALID,23.4797,VALID,201,VALID,0,
2012-06-14, 01:07:05,VALID,1009.68,VALID,0,VALID,104,VALID,0,VALID,23.4797,VALID,201,VALID,0,
2012-06-14, 01:08:04,VALID,1009.67,VALID,0,VALID,104,VALID,0,VALID,23.5186,VALID,201,VALID,0,
2012-06-14, 01:09:04,VALID,1009.68,VALID,0,VALID,104,VALID,0,VALID,23.5381,VALID,201,VALID,0,
2012-06-14, 01:10:04,VALID,1009.66,VALID,0,VALID,104,VALID,0,VALID,23.5186,VALID,201,VALID,0,
2012-06-14, 01:11:04,VALID,1009.65,VALID,0,VALID,104,VALID,0,VALID,23.5381,VALID,201,VALID,0,
2012-06-14, 01:12:04,VALID,1009.63,VALID,0,VALID,104,VALID,0,VALID,23.5186,VALID,201,VALID,0,
2012-06-14, 01:13:04,VALID,1009.62,VALID,0,VALID,104,VALID,0,VALID,23.4992,VALID,201,VALID,0,
2012-06-14, 01:14:04,VALID,1009.62,VALID,0,VALID,104,VALID,0,VALID,23.4779,VALID,201,VALID,0,
2012-06-14, 01:15:04,VALID,1009.63,VALID,0,VALID,104,VALID,0,VALID,23.4779,VALID,201,VALID,0,
2012-06-14, 01:16:04,VALID,1009.64,VALID,0,VALID,104,VALID,0,VALID,23.4797,VALID,201,VALID,0,
2012-06-14, 01:17:04,VALID,1009.63,VALID,0,VALID,104,VALID,0,VALID,23.4797,VALID,201,VALID,0,
2012-06-14, 01:18:04,VALID,1009.65,VALID,0,VALID,104,VALID,0,VALID,23.4797,VALID,201,VALID,0,
2012-06-14, 01:19:04,VALID,1009.65,VALID,0,VALID,104,VALID,0,VALID,23.4602,VALID,201,VALID,0,
2012-06-14, 01:20:04,VALID,1009.62,VALID,0,VALID,104,VALID,0,VALID,23.4407,VALID,201,VALID,0,
2012-06-14, 01:21:04,VALID,1009.62,VALID,0,VALID,104,VALID,0,VALID,23.4212,VALID,201,VALID,0,
2012-06-14, 01:22:04,VALID,1009.62,VALID,0,VALID,104,VALID,0,VALID,23.3805,VALID,201,VALID,0,
2012-06-14, 01:23:04,VALID,1009.62,VALID,0,VALID,104,VALID,0,VALID,23.3823,VALID,201,VALID,0,
2012-06-14, 01:24:04,VALID,1009.62,VALID,0,VALID,104,VALID,0,VALID,23.3415,VALID,201,VALID,0,
2012-06-14, 01:25:04,VALID,1009.61,VALID,0,VALID,104,VALID,0,VALID,23.3433,VALID,201,VALID,0,
2012-06-14, 01:26:04,VALID,1009.62,VALID,0,VALID,104,VALID,0,VALID,23.3628,VALID,201,VALID,0,
2012-06-14, 01:27:04,VALID,1009.61,VALID,0,VALID,104,VALID,0,VALID,23.3628,VALID,201,VALID,0,
2012-06-14, 01:28:04,VALID,1009.59,VALID,0,VALID,104,VALID,0,VALID,23.3433,VALID,201,VALID,0,
2012-06-14, 01:29:04,VALID,1009.59,VALID,0,VALID,104,VALID,0,VALID,23.3238,VALID,201,VALID,0,
2012-06-14, 01:30:04,VALID,1009.56,VALID,0,VALID,104,VALID,0,VALID,23.3823,VALID,200,VALID,0,
2012-06-14, 01:31:04,VALID,1009.55,VALID,0,VALID,104,VALID,0,VALID,23.4212,VALID,200,VALID,0,
2012-06-14, 01:32:04,VALID,1009.55,VALID,0,VALID,104,VALID,0,VALID,23.4602,VALID,201,VALID,0,
2012-06-14, 01:33:04,VALID,1009.51,VALID,0,VALID,104,VALID,0,VALID,23.4797,VALID,200,VALID,0,
2012-06-14, 01:34:04,VALID,1009.5,VALID,0,VALID,104,VALID,0,VALID,23.4389,VALID,201,VALID,0,
2012-06-14, 01:35:04,VALID,1009.5,VALID,0,VALID,104,VALID,0,VALID,23.4407,VALID,201,VALID,0,
2012-06-14, 01:36:04,VALID,1009.52,VALID,0,VALID,104,VALID,0,VALID,23.4212,VALID,201,VALID,0,
2012-06-14, 01:37:04,VALID,1009.55,VALID,0,VALID,104,VALID,0,VALID,23.3823,VALID,201,VALID,0,
2012-06-14, 01:38:04,VALID,1009.54,VALID,0,VALID,104,VALID,0,VALID,23.3628,VALID,200,VALID,0,
2012-06-14, 01:39:04,VALID,1009.55,VALID,0,VALID,104,VALID,0,VALID,23.3823,VALID,200,VALID,0,
2012-06-14, 01:40:04,VALID,1009.57,VALID,0,VALID,104,VALID,0.112112,VALID,23.3823,VALID,201,VALID,0,
2012-06-14, 01:41:04,VALID,1009.55,VALID,0,VALID,104,VALID,0.112112,VALID,23.3823,VALID,200,VALID,0,
2012-06-14, 01:42:04,VALID,1009.53,VALID,0,VALID,104,VALID,0.112112,VALID,23.361,VALID,200,VALID,0,
2012-06-14, 01:43:04,VALID,1009.54,VALID,0,VALID,104,VALID,0.112112,VALID,23.3415,VALID,200,VALID,0,
2012-06-14, 01:44:04,VALID,1009.52,VALID,0,VALID,104,VALID,0,VALID,23.3433,VALID,200,VALID,0,
2012-06-14, 01:45:04,VALID,1009.52,VALID,0,VALID,104,VALID,0,VALID,23.3415,VALID,201,VALID,0,
2012-06-14, 01:46:04,VALID,1009.51,VALID,0,VALID,104,VALID,0.112112,VALID,23.322,VALID,200,VALID,0,
2012-06-14, 01:47:04,VALID,1009.54,VALID,0,VALID,104,VALID,0.112112,VALID,23.3026,VALID,201,VALID,0,
2012-06-14, 01:48:04,VALID,1009.54,VALID,0,VALID,104,VALID,0,VALID,23.3433,VALID,201,VALID,0,
2012-06-14, 01:49:04,VALID,1009.53,VALID,0,VALID,104,VALID,0,VALID,23.322,VALID,200,VALID,0,
2012-06-14, 01:50:04,VALID,1009.56,VALID,0,VALID,104,VALID,0.112112,VALID,23.4212,VALID,200,VALID,0,
2012-06-14, 01:51:04,VALID,1009.52,VALID,0,VALID,104,VALID,0,VALID,23.4194,VALID,200,VALID,0,
2012-06-14, 01:52:04,VALID,1009.53,VALID,0,VALID,104,VALID,0.112112,VALID,23.4212,VALID,200,VALID,0,
2012-06-14, 01:53:04,VALID,1009.51,VALID,0,VALID,104,VALID,0,VALID,23.4017,VALID,200,VALID,0,
2012-06-14, 01:54:04,VALID,1009.52,VALID,0,VALID,104,VALID,0,VALID,23.2831,VALID,200,VALID,0,
2012-06-14, 01:55:04,VALID,1009.48,VALID,0,VALID,104,VALID,0,VALID,23.2636,VALID,200,VALID,0,
2012-06-14, 01:56:04,VALID,1009.48,VALID,0,VALID,104,VALID,0.112112,VALID,23.3043,VALID,200,VALID,0,
2012-06-14, 01:57:04,VALID,1009.47,VALID,0,VALID,104,VALID,0.112112,VALID,23.2831,VALID,200,VALID,0,
2012-06-14, 01:58:04,VALID,1009.47,VALID,0,VALID,104,VALID,0.112112,VALID,23.2831,VALID,200,VALID,0,
2012-06-14, 01:59:04,VALID,1009.46,VALID,0,VALID,104,VALID,0.112112,VALID,23.2848,VALID,200,VALID,0,
2012-06-14, 02:00:04,VALID,1009.46,VALID,0,VALID,104,VALID,0.112112,VALID,23.2636,VALID,200,VALID,0,
2012-06-14, 02:01:04,VALID,1009.44,VALID,0,VALID,104,VALID,0.112112,VALID,23.2246,VALID,200,VALID,0,
2012-06-14, 02:02:04,VALID,1009.4,VALID,0,VALID,104,VALID,0.112112,VALID,23.2264,VALID,200,VALID,0,
2012-06-14, 02:03:04,VALID,1009.4,VALID,0,VALID,104,VALID,0.112112,VALID,23.2051,VALID,200,VALID,0,
2012-06-14, 02:04:04,VALID,1009.39,VALID,0,VALID,104,VALID,0,VALID,23.2459,VALID,200,VALID,0,
2012-06-14, 02:05:04,VALID,1009.37,VALID,0,VALID,104,VALID,0.112112,VALID,23.2654,VALID,200,VALID,0,
2012-06-14, 02:06:04,VALID,1009.37,VALID,0,VALID,104,VALID,0.112112,VALID,23.2459,VALID,200,VALID,0,
2012-06-14, 02:07:04,VALID,1009.34,VALID,0,VALID,104,VALID,0.112112,VALID,23.2246,VALID,200,VALID,0,
2012-06-14, 02:08:04,VALID,1009.35,VALID,0,VALID,104,VALID,0.112112,VALID,23.2654,VALID,200,VALID,0,
2012-06-14, 02:09:04,VALID,1009.36,VALID,0,VALID,104,VALID,0.112112,VALID,23.2246,VALID,200,VALID,0,
2012-06-14, 02:10:04,VALID,1009.36,VALID,0,VALID,104,VALID,0.112112,VALID,23.2246,VALID,200,VALID,0,
2012-06-14, 02:11:04,VALID,1009.37,VALID,0,VALID,104,VALID,0.112112,VALID,23.2246,VALID,200,VALID,0,
2012-06-14, 02:12:04,VALID,1009.35,VALID,0,VALID,104,VALID,0.112112,VALID,23.2246,VALID,200,VALID,0,
2012-06-14, 02:13:04,VALID,1009.35,VALID,0,VALID,104,VALID,0,VALID,23.1857,VALID,200,VALID,0,
2012-06-14, 02:14:04,VALID,1009.35,VALID,0,VALID,104,VALID,0,VALID,23.2069,VALID,200,VALID,0,
2012-06-14, 02:15:04,VALID,1009.3,VALID,0,VALID,104,VALID,0.112112,VALID,23.1662,VALID,200,VALID,0,
2012-06-14, 02:16:04,VALID,1009.29,VALID,0,VALID,104,VALID,0,VALID,23.1662,VALID,200,VALID,0,
2012-06-14, 02:17:04,VALID,1009.3,VALID,0,VALID,104,VALID,0.112112,VALID,23.1679,VALID,200,VALID,0,
2012-06-14, 02:18:04,VALID,1009.32,VALID,0,VALID,104,VALID,0,VALID,23.1467,VALID,200,VALID,0,
2012-06-14, 02:19:04,VALID,1009.31,VALID,0,VALID,104,VALID,0.112112,VALID,23.1467,VALID,200,VALID,0,
2012-06-14, 02:20:04,VALID,1009.32,VALID,0,VALID,104,VALID,0,VALID,23.1679,VALID,200,VALID,0,
2012-06-14, 02:21:04,VALID,1009.32,VALID,0,VALID,104,VALID,0.112112,VALID,23.1874,VALID,200,VALID,0,
2012-06-14, 02:22:04,VALID,1009.29,VALID,0,VALID,104,VALID,0.112112,VALID,23.2069,VALID,200,VALID,0,
2012-06-14, 02:23:04,VALID,1009.32,VALID,0,VALID,104,VALID,0.112112,VALID,23.1679,VALID,200,VALID,0,
2012-06-14, 02:24:04,VALID,1009.32,VALID,0,VALID,104,VALID,0.112112,VALID,23.1467,VALID,200,VALID,0,
2012-06-14, 02:25:04,VALID,1009.35,VALID,0,VALID,104,VALID,0.112112,VALID,23.1662,VALID,200,VALID,0,
2012-06-14, 02:26:04,VALID,1009.39,VALID,0,VALID,104,VALID,0.112112,VALID,23.2051,VALID,200,VALID,0,
2012-06-14, 02:27:04,VALID,1009.37,VALID,0,VALID,104,VALID,0.112112,VALID,23.1662,VALID,200,VALID,0,
2012-06-14, 02:28:04,VALID,1009.39,VALID,0,VALID,104,VALID,0.112112,VALID,23.1467,VALID,200,VALID,0,
2012-06-14, 02:29:04,VALID,1009.39,VALID,0,VALID,104,VALID,0,VALID,23.129,VALID,200,VALID,0,
2012-06-14, 02:30:04,VALID,1009.36,VALID,0,VALID,104,VALID,0,VALID,23.1077,VALID,200,VALID,0,
2012-06-14, 02:31:04,VALID,1009.36,VALID,0,VALID,104,VALID,0,VALID,23.0688,VALID,200,VALID,0,
2012-06-14, 02:32:04,VALID,1009.35,VALID,0,VALID,104,VALID,0.112112,VALID,23.09,VALID,200,VALID,0,
2012-06-14, 02:33:04,VALID,1009.33,VALID,0,VALID,104,VALID,0,VALID,23.1095,VALID,200,VALID,0,
2012-06-14, 02:34:04,VALID,1009.33,VALID,0,VALID,104,VALID,0.112112,VALID,23.1272,VALID,200,VALID,0,
2012-06-14, 02:35:04,VALID,1009.34,VALID,0,VALID,104,VALID,0.112112,VALID,23.1679,VALID,201,VALID,0,
2012-06-14, 02:36:04,VALID,1009.37,VALID,0,VALID,104,VALID,0.112112,VALID,23.1467,VALID,200,VALID,0,
2012-06-14, 02:37:04,VALID,1009.36,VALID,0,VALID,104,VALID,0,VALID,23.1679,VALID,200,VALID,0,
2012-06-14, 02:38:04,VALID,1009.35,VALID,0,VALID,104,VALID,0,VALID,23.1467,VALID,200,VALID,0,
2012-06-14, 02:39:04,VALID,1009.35,VALID,0,VALID,104,VALID,0,VALID,23.129,VALID,200,VALID,0,
2012-06-14, 02:40:04,VALID,1009.36,VALID,0,VALID,104,VALID,0.112112,VALID,23.1077,VALID,201,VALID,0,
2012-06-14, 02:41:04,VALID,1009.35,VALID,0,VALID,104,VALID,0.112112,VALID,23.1874,VALID,200,VALID,0,
2012-06-14, 02:42:04,VALID,1009.33,VALID,0,VALID,104,VALID,0,VALID,23.1679,VALID,200,VALID,0,
2012-06-14, 02:43:04,VALID,1009.34,VALID,0,VALID,104,VALID,0,VALID,23.129,VALID,200,VALID,0,
2012-06-14, 02:44:04,VALID,1009.38,VALID,0,VALID,104,VALID,0,VALID,23.129,VALID,200,VALID,0,
2012-06-14, 02:45:04,VALID,1009.4,VALID,0,VALID,104,VALID,0,VALID,23.129,VALID,200,VALID,0,
2012-06-14, 02:46:04,VALID,1009.38,VALID,0,VALID,104,VALID,0,VALID,23.1095,VALID,200,VALID,0,
2012-06-14, 02:47:04,VALID,1009.42,VALID,0,VALID,104,VALID,0.112112,VALID,23.1095,VALID,201,VALID,0,
2012-06-14, 02:48:04,VALID,1009.4,VALID,0,VALID,104,VALID,0.112112,VALID,23.129,VALID,200,VALID,0,
2012-06-14, 02:49:04,VALID,1009.43,VALID,0,VALID,104,VALID,0,VALID,23.129,VALID,201,VALID,0,
2012-06-14, 02:50:04,VALID,1009.42,VALID,0,VALID,104,VALID,0.112112,VALID,23.1077,VALID,201,VALID,0,
2012-06-14, 02:51:04,VALID,1009.4,VALID,0,VALID,104,VALID,0,VALID,23.1485,VALID,200,VALID,0,
2012-06-14, 02:52:04,VALID,1009.39,VALID,0,VALID,104,VALID,0,VALID,23.129,VALID,201,VALID,0,
2012-06-14, 02:53:04,VALID,1009.42,VALID,0,VALID,104,VALID,0.112112,VALID,23.1485,VALID,200,VALID,0,
2012-06-14, 02:54:04,VALID,1009.4,VALID,0,VALID,104,VALID,0,VALID,23.1485,VALID,201,VALID,0,
2012-06-14, 02:55:04,VALID,1009.39,VALID,0,VALID,104,VALID,0.112112,VALID,23.1467,VALID,201,VALID,0,
2012-06-14, 02:56:04,VALID,1009.42,VALID,0,VALID,104,VALID,0.112112,VALID,23.1077,VALID,201,VALID,0,
2012-06-14, 02:57:04,VALID,1009.4,VALID,0,VALID,104,VALID,0.112112,VALID,23.129,VALID,200,VALID,0,
2012-06-14, 02:58:04,VALID,1009.4,VALID,0,VALID,104,VALID,0,VALID,23.1485,VALID,200,VALID,0,
2012-06-14, 02:59:04,VALID,1009.42,VALID,0,VALID,104,VALID,0.112112,VALID,23.1679,VALID,201,VALID,0,
2012-06-14, 03:00:04,VALID,1009.43,VALID,0,VALID,104,VALID,0.112112,VALID,23.1679,VALID,201,VALID,0,
2012-06-14, 03:01:04,VALID,1009.45,VALID,0,VALID,104,VALID,0,VALID,23.1485,VALID,200,VALID,0,
2012-06-14, 03:02:04,VALID,1009.45,VALID,0,VALID,104,VALID,0,VALID,23.1485,VALID,201,VALID,0,
2012-06-14, 03:03:04,VALID,1009.45,VALID,0,VALID,104,VALID,0.112112,VALID,23.1679,VALID,201,VALID,0,
2012-06-14, 03:04:04,VALID,1009.43,VALID,0,VALID,104,VALID,0.112112,VALID,23.1467,VALID,201,VALID,0,
2012-06-14, 03:05:04,VALID,1009.43,VALID,0,VALID,104,VALID,0,VALID,23.1662,VALID,200,VALID,0,
2012-06-14, 03:06:04,VALID,1009.39,VALID,0,VALID,104,VALID,0.112112,VALID,23.1662,VALID,200,VALID,0,
2012-06-14, 03:07:04,VALID,1009.39,VALID,0,VALID,104,VALID,0,VALID,23.1679,VALID,201,VALID,0,
2012-06-14, 03:08:04,VALID,1009.38,VALID,0,VALID,104,VALID,0.112112,VALID,23.1467,VALID,201,VALID,0,
2012-06-14, 03:09:04,VALID,1009.37,VALID,0,VALID,104,VALID,0,VALID,23.1485,VALID,200,VALID,0,
2012-06-14, 03:10:04,VALID,1009.38,VALID,0,VALID,104,VALID,0,VALID,23.09,VALID,201,VALID,0,
2012-06-14, 03:11:04,VALID,1009.36,VALID,0,VALID,104,VALID,0,VALID,23.09,VALID,201,VALID,0,
2012-06-14, 03:12:04,VALID,1009.38,VALID,0,VALID,104,VALID,0,VALID,23.0918,VALID,201,VALID,0,
2012-06-14, 03:13:04,VALID,1009.39,VALID,0,VALID,104,VALID,0,VALID,23.1095,VALID,201,VALID,0,
2012-06-14, 03:14:04,VALID,1009.38,VALID,0,VALID,104,VALID,0,VALID,23.1307,VALID,201,VALID,0,
2012-06-14, 03:15:04,VALID,1009.35,VALID,0,VALID,104,VALID,0,VALID,23.1502,VALID,201,VALID,0,
2012-06-14, 03:16:04,VALID,1009.35,VALID,0,VALID,104,VALID,0,VALID,23.1697,VALID,201,VALID,0,
2012-06-14, 03:17:04,VALID,1009.34,VALID,0,VALID,104,VALID,0,VALID,23.1697,VALID,201,VALID,0,
2012-06-14, 03:18:04,VALID,1009.33,VALID,0,VALID,104,VALID,0,VALID,23.1892,VALID,201,VALID,0,
2012-06-14, 03:19:04,VALID,1009.32,VALID,0,VALID,104,VALID,0,VALID,23.129,VALID,201,VALID,0,
2012-06-14, 03:20:04,VALID,1009.32,VALID,0,VALID,104,VALID,0,VALID,23.1502,VALID,201,VALID,0,
2012-06-14, 03:21:04,VALID,1009.31,VALID,0,VALID,104,VALID,0,VALID,23.1307,VALID,200,VALID,0,
2012-06-14, 03:22:04,VALID,1009.29,VALID,0,VALID,104,VALID,0,VALID,23.1307,VALID,201,VALID,0,
2012-06-14, 03:23:04,VALID,1009.3,VALID,0,VALID,104,VALID,0,VALID,23.1112,VALID,201,VALID,0,
2012-06-14, 03:24:04,VALID,1009.3,VALID,0,VALID,104,VALID,0,VALID,23.1112,VALID,201,VALID,0,
2012-06-14, 03:25:04,VALID,1009.28,VALID,0,VALID,104,VALID,0,VALID,23.1112,VALID,201,VALID,0,
2012-06-14, 03:26:04,VALID,1009.25,VALID,0,VALID,104,VALID,0,VALID,23.1095,VALID,201,VALID,0,
2012-06-14, 03:27:04,VALID,1009.28,VALID,0,VALID,104,VALID,0,VALID,23.1502,VALID,201,VALID,0,
2012-06-14, 03:28:04,VALID,1009.26,VALID,0,VALID,104,VALID,0,VALID,23.1485,VALID,201,VALID,0,
2012-06-14, 03:29:04,VALID,1009.27,VALID,0,VALID,104,VALID,0,VALID,23.1892,VALID,201,VALID,0,
2012-06-14, 03:30:04,VALID,1009.27,VALID,0,VALID,104,VALID,0,VALID,23.2069,VALID,201,VALID,0,
2012-06-14, 03:31:04,VALID,1009.27,VALID,0,VALID,104,VALID,0,VALID,23.2459,VALID,201,VALID,0,
2012-06-14, 03:32:04,VALID,1009.27,VALID,0,VALID,104,VALID,0,VALID,23.2671,VALID,201,VALID,0,
2012-06-14, 03:33:04,VALID,1009.27,VALID,0,VALID,104,VALID,0,VALID,23.2476,VALID,201,VALID,0,
2012-06-14, 03:34:04,VALID,1009.27,VALID,0,VALID,104,VALID,0,VALID,23.1697,VALID,201,VALID,0,
2012-06-14, 03:35:04,VALID,1009.29,VALID,0,VALID,104,VALID,0,VALID,23.1485,VALID,201,VALID,0,
2012-06-14, 03:36:04,VALID,1009.3,VALID,0,VALID,104,VALID,0,VALID,23.1874,VALID,201,VALID,0,
2012-06-14, 03:37:04,VALID,1009.3,VALID,0,VALID,104,VALID,0,VALID,23.1874,VALID,201,VALID,0,
2012-06-14, 03:38:04,VALID,1009.32,VALID,0,VALID,104,VALID,0,VALID,23.2069,VALID,201,VALID,0,
2012-06-14, 03:39:04,VALID,1009.29,VALID,0,VALID,104,VALID,0.112112,VALID,23.2051,VALID,201,VALID,0,
2012-06-14, 03:40:04,VALID,1009.32,VALID,0,VALID,104,VALID,0,VALID,23.1485,VALID,201,VALID,0,
2012-06-14, 03:41:04,VALID,1009.32,VALID,0,VALID,104,VALID,0,VALID,23.09,VALID,201,VALID,0,
2012-06-14, 03:42:04,VALID,1009.33,VALID,0,VALID,104,VALID,0.112112,VALID,23.0705,VALID,201,VALID,0,
2012-06-14, 03:43:04,VALID,1009.31,VALID,0,VALID,104,VALID,0.112112,VALID,23.0316,VALID,201,VALID,0,
2012-06-14, 03:44:04,VALID,1009.34,VALID,0,VALID,104,VALID,0,VALID,22.9926,VALID,201,VALID,0,
2012-06-14, 03:45:04,VALID,1009.35,VALID,0,VALID,104,VALID,0,VALID,22.9519,VALID,201,VALID,0,
2012-06-14, 03:46:04,VALID,1009.32,VALID,0,VALID,104,VALID,0.112112,VALID,22.9519,VALID,201,VALID,0,
2012-06-14, 03:47:04,VALID,1009.34,VALID,0,VALID,104,VALID,0,VALID,22.9714,VALID,201,VALID,0,
2012-06-14, 03:48:04,VALID,1009.38,VALID,0,VALID,104,VALID,0.112112,VALID,23.0121,VALID,201,VALID,0,
2012-06-14, 03:49:04,VALID,1009.4,VALID,0,VALID,104,VALID,0.112112,VALID,23.0511,VALID,201,VALID,0,
2012-06-14, 03:50:04,VALID,1009.39,VALID,0,VALID,104,VALID,0,VALID,23.09,VALID,201,VALID,0,
2012-06-14, 03:51:04,VALID,1009.38,VALID,0,VALID,104,VALID,0.112112,VALID,23.129,VALID,201,VALID,0,
2012-06-14, 03:52:04,VALID,1009.39,VALID,0,VALID,104,VALID,0.112112,VALID,23.09,VALID,201,VALID,0,
2012-06-14, 03:53:04,VALID,1009.4,VALID,0,VALID,104,VALID,0.112112,VALID,23.0511,VALID,201,VALID,0,
2012-06-14, 03:54:04,VALID,1009.42,VALID,0,VALID,104,VALID,0,VALID,23.0121,VALID,201,VALID,0,
2012-06-14, 03:55:04,VALID,1009.38,VALID,0,VALID,104,VALID,0.112112,VALID,22.9519,VALID,201,VALID,0,
2012-06-14, 03:56:04,VALID,1009.4,VALID,0,VALID,104,VALID,0.112112,VALID,22.9926,VALID,201,VALID,0,
2012-06-14, 03:57:04,VALID,1009.41,VALID,0,VALID,104,VALID,0.112112,VALID,22.9926,VALID,201,VALID,0,
2012-06-14, 03:58:04,VALID,1009.45,VALID,0,VALID,104,VALID,0.112112,VALID,22.9909,VALID,201,VALID,0,
2012-06-14, 03:59:04,VALID,1009.46,VALID,0,VALID,104,VALID,0,VALID,22.9519,VALID,201,VALID,0,
2012-06-14, 04:00:04,VALID,1009.44,VALID,0,VALID,104,VALID,0,VALID,22.9536,VALID,201,VALID,0,
2012-06-14, 04:01:04,VALID,1009.44,VALID,0,VALID,104,VALID,0.112112,VALID,22.8935,VALID,201,VALID,0,
2012-06-14, 04:02:04,VALID,1009.43,VALID,0,VALID,104,VALID,0,VALID,22.9147,VALID,201,VALID,0,
2012-06-14, 04:03:04,VALID,1009.42,VALID,0,VALID,104,VALID,0.112112,VALID,22.8952,VALID,201,VALID,0,
2012-06-14, 04:04:04,VALID,1009.44,VALID,0,VALID,104,VALID,0.112112,VALID,22.8545,VALID,201,VALID,0,
2012-06-14, 04:05:04,VALID,1009.43,VALID,0,VALID,104,VALID,0.112112,VALID,22.874,VALID,201,VALID,0,